Location: Newark
(11.2914°S, 14.4718°E)
Time: 03:54:35
(UTC+00:00)

Courier 1B Rocket - Visible Passes

Search period start: 15 October 2019 00:00
Search period end: 25 October 2019 00:00
Orbit: 920 x 1202 km, 28.2° (Epoch: 14 October)

Date Brightness Start Highest point End Pass type
(mag) Time Alt. Az. Time Alt. Az. Time Alt. Az.
15 Oct 7.1 17:55:04 10° SW 18:00:22 20° S 18:05:27 10° SE visible
15 Oct 7.1 19:49:45 10° SW 19:53:06 21° SSW 19:53:06 21° SSW visible
16 Oct 6.8 18:48:21 10° SW 18:53:56 22° S 18:55:51 20° SSE visible
16 Oct 7.8 20:41:56 10° SW 20:42:13 11° SW 20:42:13 11° SW visible
17 Oct 7.1 17:46:42 10° SW 17:52:11 21° S 17:57:28 10° SE visible
17 Oct 6.7 19:40:45 10° SW 19:44:58 27° SSW 19:44:58 27° SSW visible
18 Oct 6.5 18:39:28 10° SW 18:45:39 27° SSE 18:47:42 24° SE visible
18 Oct 7.6 20:32:56 10° SW 20:34:04 15° SW 20:34:04 15° SW visible
19 Oct 6.9 17:38:03 10° SW 17:43:59 23° S 17:49:39 10° ESE visible
19 Oct 6.3 19:31:43 10° SW 19:36:49 37° SSW 19:36:49 37° SSW visible
20 Oct 6.2 18:30:29 10° SW 18:37:18 34° SSE 18:39:35 28° SE visible
20 Oct 7.4 20:24:03 10° WSW 20:25:57 19° WSW 20:25:57 19° WSW visible
21 Oct 6.7 17:29:11 10° SW 17:35:41 28° SSE 17:41:54 10° ESE visible
21 Oct 5.8 19:22:42 10° SW 19:28:44 52° SSW 19:28:44 52° SSW visible
22 Oct 5.9 18:21:27 10° SW 18:28:48 46° SSE 18:31:32 33° ESE visible
22 Oct 7.1 20:15:20 10° WSW 20:17:55 23° WSW 20:17:55 23° WSW visible
23 Oct 6.3 17:20:13 10° SW 17:27:16 36° SSE 17:34:02 10° E visible
23 Oct 5.3 19:13:49 10° WSW 19:20:45 75° WSW 19:20:45 75° WSW visible
24 Oct 5.5 18:12:27 10° SW 18:20:11 65° SSE 18:23:36 34° E visible
24 Oct 7.0 20:06:52 10° W 20:09:59 24° W 20:09:59 24° W visible
